Location: Boiro
(42.6475°N, 8.8834°W)
Time: 07:01:23
(UTC+01:00)

Vanguard 1 - Pass Details

Date: 08 December 2021
Orbit: 652 x 3830 km, 34.2° (Epoch: 21 January)

Event Time Altitude Azimuth Distance (km) Brightness Sun altitude
Rises 02:46:56 0° 260° (W) 7,370 - -64.1°
Reaches altitude 10° 02:51:32 10° 259° (WSW) 6,590 - -63.5°
Maximum altitude 03:14:27 68° 183° (S) 3,923 - -60.2°
Exits shadow 03:22:06 49° 124° (SE) 4,143 13.0 -59.0°
Drops below altitude 10° 03:33:51 10° 106° (ESE) 5,723 14.2 -57.1°
Sets 03:37:30 0° 103° (ESE) 6,407 14.6 -56.5°
